Weather History for Goodland, KS

Change the Weather History Date:

Tuesday, November 20, 2012

  Actual Average Record
Temperature  
Mean Temperature 49 °F 37 °F  
Max Temperature 69 °F 50 °F 75 °F (1955)
Min Temperature 29 °F 24 °F 4 °F (1929)
Degree Days  
Heating Degree Days 16 28  
Month to date heating degree days 394 472  
Since 1 July heating degree days 928 1012  
Cooling Degree Days 0 0  
Month to date cooling degree days 0 0  
Year to date cooling degree days 1338 941  
Moisture  
Dew Point 22 °F    
Average Humidity 42    
Maximum Humidity 69    
Minimum Humidity 14    
Precipitation  
Precipitation 0.00 in 0.02 in 0.90 in (1930)
Month to date precipitation T 0.52  
Year to date precipitation 9.02 19.01  
Snow  
Snow 0.00 in 0.10 in - ()
Month to date snowfall T 2.8  
Since 1 July snowfall 0.5 5.4  
Since 1 September snowfall 0.5 5.4  
Snow Depth 0.00 in    
Sea Level Pressure  
Sea Level Pressure 30.16 in    
Wind  
Wind Speed 13 mph (SSW)    
Max Wind Speed 24 mph    
Max Gust Speed 31 mph    
Visibility 10 miles    
Events      
T = Trace of Precipitation, MM = Missing Value Source: NWS Daily Summary

Daily Weather History Graph

Daily Weather History Graph

Search for Another Location

Airport:

Trip Planner

Search our weather history database for the weather conditions in past years. The results will help you decide how hot, cold, wet, or windy it might be!

Date:

Astronomy

Nov. 20, 2012 Rise Set
Actual Time 6:36 AM MST 4:28 PM MST
Civil Twilight 6:07 AM MST 4:57 PM MST
Nautical Twilight 5:34 AM MST 5:29 PM MST
Astronomical Twilight 5:02 AM MST 6:01 PM MST
Moon 12:13 PM MST (11/20) No Moon Set
Length of Visible Light 10h 49m
Length of Day
9h 51m
First Quarter, 52% of the Moon is Illuminated
Nov 20
First Quarter
Nov 28
Full
Dec 6
Last Quarter
Dec 13
New
Dec 19
First Quarter

Hourly Weather History & Observations

Time (MST) Temp. Windchill Dew Point Humidity Pressure Visibility Wind Dir Wind Speed Gust Speed Precip Events Conditions
12:53 AM 33.1 °F 26.1 °F 21.9 °F 64% 30.20 in 10.0 mi WSW 8.1 mph - N/A   Clear
1:53 AM 34.0 °F 28.8 °F 21.9 °F 61% 30.20 in 10.0 mi WSW 5.8 mph - N/A   Clear
2:53 AM 32.0 °F 24.2 °F 21.9 °F 66% 30.20 in 10.0 mi WSW 9.2 mph - N/A   Clear
3:53 AM 32.0 °F 24.8 °F 23.0 °F 69% 30.23 in 10.0 mi WSW 8.1 mph - N/A   Clear
4:53 AM 32.0 °F 24.8 °F 23.0 °F 69% 30.23 in 10.0 mi WSW 8.1 mph - N/A   Clear
5:53 AM 36.0 °F 29.0 °F 25.0 °F 64% 30.24 in 10.0 mi WSW 9.2 mph - N/A   Clear
6:53 AM 34.0 °F 28.0 °F 24.1 °F 67% 30.27 in 10.0 mi SW 6.9 mph - N/A   Clear
7:53 AM 50.0 °F - 28.0 °F 43% 30.26 in 10.0 mi SW 8.1 mph - N/A   Clear
8:53 AM 59.0 °F - 28.9 °F 32% 30.25 in 10.0 mi SSW 13.8 mph - N/A   Clear
9:53 AM 63.0 °F - 27.0 °F 26% 30.23 in 10.0 mi SSW 16.1 mph - N/A   Clear
10:53 AM 66.0 °F - 25.0 °F 21% 30.19 in 10.0 mi South 17.3 mph - N/A   Clear
11:53 AM 66.9 °F - 24.1 °F 20% 30.16 in 10.0 mi South 20.7 mph - N/A   Clear
12:53 PM 69.1 °F - 23.0 °F 18% 30.12 in 10.0 mi South 21.9 mph 27.6 mph N/A   Clear
1:53 PM 68.0 °F - 17.1 °F 14% 30.09 in 10.0 mi SSW 16.1 mph - N/A   Clear
2:53 PM 66.9 °F - 16.0 °F 14% 30.09 in 10.0 mi South 16.1 mph - N/A   Clear
3:53 PM 64.0 °F - 18.0 °F 17% 30.11 in 10.0 mi SSW 11.5 mph - N/A   Clear
4:53 PM 53.1 °F - 17.1 °F 24% 30.15 in 10.0 mi SSW 8.1 mph - N/A   Clear
5:53 PM 53.1 °F - 19.0 °F 26% 30.14 in 10.0 mi SSW 10.4 mph - N/A   Clear
6:53 PM 52.0 °F - 19.0 °F 27% 30.15 in 10.0 mi South 10.4 mph - N/A   Clear
7:53 PM 48.9 °F - 21.0 °F 33% 30.11 in 10.0 mi South 13.8 mph - N/A   Clear
8:53 PM 48.9 °F - 23.0 °F 36% 30.08 in 10.0 mi SSW 17.3 mph - N/A   Clear
9:53 PM 51.1 °F - 19.9 °F 29% 30.06 in 10.0 mi SSW 20.7 mph 31.1 mph N/A   Clear
10:53 PM 48.0 °F - 19.9 °F 33% 30.05 in 10.0 mi SSW 18.4 mph 24.2 mph N/A   Clear
11:53 PM 46.0 °F 39.9 °F 21.0 °F 37% 30.04 in 10.0 mi SSW 13.8 mph - N/A   Clear